Regional Weather Roundup
Issued by NWS Sterling, VA

Home | Current Version | Previous Version | Graphics & Text | Print | Product List | Glossary On
Versions: 1 2 3 4 5 6 7 8 9 10 11 12 13 14 15 16 17 18 19 20 21 22 23 24 25 26 27 28 29 30 31 32 33 34 35 36 37 38 39 40 41 42 43 44 45 46 47 48 49 50
748
ASUS41 KLWX 201911
RWRLWX

REGIONAL WEATHER ROUNDUP
NATIONAL WEATHER SERVICE BALTIMORE MD/WASHINGTON DC
300 PM EDT WED SEP 20 2017

Note: "FAIR" indicates few or no clouds below 12,000 feet
with no significant weather and/or obstructions to visibility.
 TC=TEMPERATURE CELSIUS

 * =Non NWS site. Station does not report precipitation (e.g. rain,
    snow, etc.), thunder, or fog.

DCZ001-MDZ009-015-VAZ040>042-051-053>054-202000-
WASHINGTON METRO

CITY           SKY/WX    TMP DP  RH WIND       PRES   REMARKS
WASHINGTON NAT MOSUNNY   87  63  44 NW3       29.93F
DULLES         MOSUNNY   85  61  44 NW9       29.95F
ANDREWS AFB    SUNNY     85  58  39 NW10      29.93S
FT BELVOIR     SUNNY     87  59  38 NW7       29.93F
QUANTICO       MOSUNNY   88  61  40 NW7       29.94F
COLLEGE PARK*  SUNNY     84  60  44 N8        29.92F
LEESBURG*      SUNNY     86  63  45 N9        29.96F
MANASSAS*      SUNNY     87  62  43 VRB6      29.95F
GAITHERSBURG*  SUNNY     84  59  42 NW5       29.96F

$$

MDZ006>007-011-014-202000-
BALTIMORE METRO

CITY           SKY/WX    TMP DP  RH WIND       PRES   REMARKS
BWI AIRPORT    MOSUNNY   86  65  49 NW7       29.91F
MD SCIENCE CTR   N/A     87  60  40 MISG      29.91F
MARTIN STATE   MOSUNNY   86  66  51 NW6       29.92F
ANNAPOLIS      SUNNY     87  67  51 NW8       29.91F HX  90
FORT MEADE*      N/A     84  63  48 NW5       29.95S

$$

MDZ012-015-019>023-202000-
MARYLAND EASTERN SHORE

CITY           SKY/WX    TMP DP  RH WIND       PRES   REMARKS
OCEAN CITY     PTSUNNY   84  70  62 N13       29.88F
SALISBURY      PTSUNNY   83  68  60 NW12      29.89F
CAMBRIDGE*     MOSUNNY   81  66  61 NW10G16   29.91F
EASTON*        PTSUNNY   82  66  57 NW10      29.95S

$$

MDZ017>025-202000-
SOUTHERN MARYLAND

CITY           SKY/WX    TMP DP  RH WIND       PRES   REMARKS
PATUXENT RIVER MOSUNNY   86  65  49 NW13      29.92F
ST INIGOES     SUNNY     85  67  54 VRB5      29.91F
LEONARDTOWN*   SUNNY     84  64  51 W6        29.94F

$$

MDZ003>005-202000-
NORTH CENTRAL MARYLAND

CITY           SKY/WX    TMP DP  RH WIND       PRES   REMARKS
FREDERICK*     SUNNY     88  55  33 N9        29.97F
HAGERSTOWN APT SUNNY     86  59  39 NW12G17   29.96F
WESTMINSTER*   SUNNY     84  61  45 N8        29.96F

$$

MDZ501>502-202000-
WESTERN MARYLAND

CITY           SKY/WX    TMP DP  RH WIND       PRES   REMARKS
OAKLAND*       PTSUNNY   70  59  68 NW6       30.08S
CUMBERLAND*    SUNNY     88  55  33 NW9       30.01F

$$

VAZ025>031-202000-
SHENANDOAH VALLEY

CITY           SKY/WX    TMP DP  RH WIND       PRES   REMARKS
WINCHESTER*    SUNNY     82  61  47 W7        29.97S
FRONT ROYAL*   SUNNY     86  55  35 NW3       29.96F
LURAY*         SUNNY     86  59  39 CALM      29.97F
NEW MARKET*    MOSUNNY   86  58  38 CALM      29.96F
STAUNTON*      CLOUDY    82  62  50 CALM      30.01F
WAYNESBORO*    CLOUDY    80  66  63 CALM      30.01F

$$

WVZ021-048>050-054>055-202000-
EASTERN WEST VIRGINIA PANHANDLE

CITY           SKY/WX    TMP DP  RH WIND       PRES   REMARKS
MARTINSBURG    SUNNY     87  57  35 VRB6      29.96F
PETERSBURG*    CLOUDY    89  62  39 NW6       29.98F

$$

VAZ036>039-050-202000-
CENTRAL FOOTHILLS

CITY           SKY/WX    TMP DP  RH WIND       PRES   REMARKS
CHARLOTTESVILL SUNNY     88  60  38 NW3       29.96F
CULPEPER*      SUNNY     87  64  45 N7        29.96S
ORANGE*        SUNNY     84  63  48 CALM      29.95F
GORDONSVILLE*  SUNNY     86  65  50 NE8       29.95F
WARRENTON*     SUNNY     88  58  35 N6        29.95F

$$

VAZ055>057-202000-
NORTH AND CENTRAL PIEDMONT

CITY           SKY/WX    TMP DP  RH WIND       PRES   REMARKS
FREDERICKSBRG* SUNNY     87  63  43 NW5       29.93F
STAFFORD*      SUNNY     87  55  34 NW9       29.98F

$$

NCZ024-NYZ072-PAZ021-071-VAZ022-071-202000-
OTHER REGIONAL OBSERVATIONS

CITY           SKY/WX    TMP DP  RH WIND       PRES   REMARKS
NEW YORK CITY  CLOUDY    78  65  63 VRB5      29.89F
PHILADELPHIA   PTSUNNY   85  65  51 N14G22    29.88F
PITTSBURGH     CLOUDY    80  62  54 NE6       30.02F
ROANOKE        LGT RAIN  79  67  66 CALM      30.02F
RICHMOND       MOSUNNY   88  61  40 N10       29.94F
RALEIGH        MOSUNNY   90  63  40 VRB3      29.96F HX  91

$$

ANZ530>537-202000-
MARINE OBSERVATIONS

STATION/POSITION TIME  TEMP    WIND        PRES
                       AIR SEA DIR/SP/G
                 (UTC) (F)     (DEG/KT/KT) (MB)
THOMAS PT LIGHT  1900   78 76  140/  5/  6   N/A
BALT KEY BRIDGE  1848   84     350/  8/ 11 1012.7F
COVE POINT       1848   77      20/  5/  6 1013.8F
LEWISETTA        1848   81 76  340/  7/ 10 1013.2F
SOLOMONS ISLAND  1848   82 76  300/  5/  8 1012.7F
PINEY POINT      1848          310/ 13/ 14   N/A

$$





USA.gov is the U.S. government's official web portal to all federal, state and local government web resources and services.